Starlink 30812

operational
NORAD ID: 58168 Int'l Des: 2023-166 Owner: SPXS Country: US Constellation: starlink
LEOCIRCULAR

About Starlink 30812

Description loading...

Live Position

Loading 3D Globe...

Upcoming Passes

Altitude History

Altitude vs Time

uPlot chart will show altitude changes over time

Two-Line Element Set

1 58168U 23166U 25259.17429802 .00008399 00000-0 29570-3 0 9997
2 58168 53.1599 309.9818 0000994 103.3552 256.7559 15.30164448106317
Epoch: Sep 16, 2025 • Age: 7 hours

Current Status

Altitude 481.2 km
Velocity 7.63 km/s
Sub-Earth Point 52.96°N, 128.41°W
Launch Date Oct 29, 2023
Age 1.8 years
Type internet

Technical Details

Classification Payload
Mass 730.00 kg
Dry Mass 700.00 kg
Total Mass 730.00 kg
Length 0.30 m
Diameter 4.10 m
Span 29.00 m
Shape Box + pan
Manufacturer SPXS
Bus Type Starlink V2M
Phase Status In Orbit
Owner/State SPXS/US

Large Constellations

Loading constellations...